Regional Weather Roundup
Issued by NWS

Home | Current Version | Previous Version | Graphics & Text | Print | Product List | Glossary Off
Versions: 1 2 3 4 5 6 7 8 9 10 11 12 13 14 15 16 17 18 19 20 21 22 23 24 25 26 27 28 29 30 31 32 33 34 35 36 37 38 39 40 41 42 43 44 45 46 47 48 49 50

000
ASUS43 KTOP 291759
RWRKS

WEATHER ROUNDUP FOR KANSAS
NATIONAL WEATHER SERVICE GOODLAND KS
100 PM CDT WED MAR 29 2017

NOTE:  "FAIR" INDICATES FEW OR NO CLOUDS BELOW 12,000 FEET WITH NO
SIGNIFICANT WEATHER AND/OR OBSTRUCTIONS TO VISIBILITY.

KSZ001>006-013>018-027>032-041>047-291900-
NORTHWEST KANSAS

CITY           SKY/WX    TMP DP  RH WIND       PRES   REMARKS
GOODLAND       CLOUDY    41  39  93 N26G33    29.94F
6HR MIN TEMP:  39; 6HR MAX TEMP:  41; 6HR PCP:  0.06;

HAYS             N/A     45  43  93 N25G32    29.80S FOG
HILL CITY      LGT RAIN  45  43  93 N24G35    29.88F FOG
6HR MIN TEMP:  43; 6HR MAX TEMP:  45; 6HR PCP:  0.18;

RUSSELL        RAIN      45  43  93 N22G35    29.76F FOG
6HR MIN TEMP:  45; 6HR MAX TEMP:  46; 6HR PCP:  0.49;

$$

KSZ061>065-074>080-084>089-291900-
SOUTHWEST KANSAS

CITY           SKY/WX    TMP DP  RH WIND       PRES   REMARKS
DODGE CITY     RAIN      43  40  89 N28G40    29.78S FOG
6HR MIN TEMP:  42; 6HR MAX TEMP:  44; 6HR PCP:  0.59;

ELKHART          N/A    N/A N/A N/A MISG        N/A
GARDEN CITY    RAIN      42  39  89 N26G33    29.84F
6HR MIN TEMP:  41; 6HR MAX TEMP:  42; 6HR PCP:  0.38;

GREAT BEND     LGT RAIN  45  43  93 N32G38    29.70F
LIBERAL        CLOUDY    43  37  81 N24G31    29.86S
$$

KSZ066>073-081>083-090>101-291900-
SOUTHEAST KANSAS

CITY           SKY/WX    TMP DP  RH WIND       PRES   REMARKS
CHANUTE        CLOUDY    68  59  73 S16       29.63F
6HR MIN TEMP:  55; 6HR MAX TEMP:  68; 6HR PCP:  0.10;

COFFEYVILLE    CLOUDY    71  59  65 S21G31    29.63F
6HR MIN TEMP:  58; 6HR MAX TEMP:  71; 6HR PCP:  0.05;

HUTCHINSON     CLOUDY    50  46  87 N18G28    29.63F
NEWTON         CLOUDY    51  50  96 N15       29.61F
PARSONS        CLOUDY    71  57  61 S14G26    29.63F
6HR MIN TEMP:  57; 6HR MAX TEMP:  71; 6HR PCP:  0.05;

WICHITA INTL   RAIN      55  54  96 VRB3      29.61S FOG
6HR MIN TEMP:  50; 6HR MAX TEMP:  55; 6HR PCP:  0.11;

WICHITA JABRA  CLOUDY    57  57 100 CALM      29.60S
6HR MIN TEMP:  50; 6HR MAX TEMP:  57; 6HR PCP:  0.03;

WICHITA MCCONL LGT RAIN  57  55  94 S5        29.60S FOG
WINFIELD       CLOUDY    58  56  93 S13       29.64R
6HR MIN TEMP:  54; 6HR MAX TEMP:  61; 6HR PCP:  0.04;

$$

KSZ007>012-019>026-033>040-048>060-102>105-291900-
NORTHEAST KANSAS

CITY           SKY/WX    TMP DP  RH WIND       PRES   REMARKS
CONCORDIA      LGT RAIN  46  45  96 NE20G35   29.76F
6HR MIN TEMP:  46; 6HR MAX TEMP:  47; 6HR PCP:  0.44;

EMPORIA        CLOUDY    59  58  96 E14       29.62F
6HR MIN TEMP:  50; 6HR MAX TEMP:  59; 6HR PCP:  0.45;

LAWRENCE       CLOUDY    54  53  97 E15       29.70F
6HR MIN TEMP:  50; 6HR MAX TEMP:  54; 6HR PCP:  0.14;

MANHATTAN      LGT RAIN  49  49 100 NE18      29.70F FOG
6HR MIN TEMP:  49; 6HR MAX TEMP:  50; 6HR PCP:  0.44;

OLATHE IND     CLOUDY    57  53  86 E14G21    29.70F
6HR MIN TEMP:  49; 6HR MAX TEMP:  57; 6HR PCP:  0.26;

OLATHE EXE     CLOUDY    56  55  97 E16G24    29.70F
6HR MIN TEMP:  48; 6HR MAX TEMP:  56; 6HR PCP:  0.21;

SALINA         LGT RAIN  49  47  93 N24G30    29.70F FOG
6HR MIN TEMP:  49; 6HR MAX TEMP:  50;

TOPEKA BILLARD CLOUDY    53  52  96 E16       29.69F
6HR MIN TEMP:  50; 6HR MAX TEMP:  53; 6HR PCP:  0.29;

TOPEKA FORBES  CLOUDY    55  52  89 E16G25    29.68F
6HR MIN TEMP:  50; 6HR MAX TEMP:  55; 6HR PCP:  0.30;

$$



USA.gov is the U.S. government's official web portal to all federal, state and local government web resources and services.